Location: Rounton
(54.4000°N, 1.3500°W)
Time: 12:47:08
(UTC+00:00)

Transit 2A - Pass Details

Date: 03 December 2021
Orbit: 591 x 967 km, 66.7° (Epoch: 17 January)

Event Time Altitude Azimuth Distance (km) Brightness Sun altitude
Rises 02:37:57 0° 252° (WSW) 3,426 - -45.6°
Reaches altitude 10° 02:40:30 10° 260° (W) 2,544 - -45.3°
Maximum altitude 02:46:09 42° 330° (NNW) 1,309 - -44.6°
Exits shadow 02:50:32 18° 33° (NNE) 2,179 8.7 -44.0°
Drops below altitude 10° 02:52:10 10° 40° (NE) 2,704 9.3 -43.8°
Sets 02:54:56 0° 48° (NE) 3,665 10.3 -43.5°
